Lid_Strength_Index
5 4 3 3 3 3 2 2 1 1 1 1 0 0 0 -0 0 -0 0 0 1 0 0 0 -0 -0 -1 -1 -1 -1 -1 -1 -0
5 4 4 4 3 2 2 2 2 1 1 1 1 1 0 0 -0 -0 0 -0 -0 0 -0 -0 -0 -1 -0 -1 -1 -1 -1 0 0
5 4 4 3 2 2 1 1 1 1 1 1 0 0 0 0 0 0 -0 -0 -0 -0 -0 -1 -1 -0 -0 -0 -1 -1 -0 0 -0
5 4 4 3 2 2 1 1 1 0 0 0 0 0 -0 0 -0 -0 -0 -0 -1 -1 -1 -1 -1 -1 -0 -0 0 -0 -0 0 -0
5 4 3 3 2 2 1 1 1 1 0 0 -0 -0 -0 -0 -0 -1 -0 -0 -1 -1 -1 -1 -1 -1 -1 -0 -0 -0 0 0 0
4 4 3 3 2 2 2 1 1 1 1 0 -0 -0 -0 -0 -0 -0 -0 -0 -1 -1 -1 -1 -1 -1 -0 -0 -0 -0 -0 -0 0
4 4 3 3 3 2 2 1 1 1 1 0 0 0 0 0 0 -0 -0 -0 -1 -1 -1 -0 -1 -1 -1 -1 -1 -0 -0 0 0
5 4 4 3 3 3 2 2 2 1 0 0 -0 0 0 0 -0 -0 -0 -0 -1 -1 -1 -1 -1 -1 -0 -1 -0 -0 -0 -0 -0
5 5 4 3 3 3 2 2 2 1 0 0 -0 0 1 0 -0 -0 -0 -0 -0 -0 -0 -0 -1 -0 -0 -0 -0 0 0 -0 0
5 4 4 3 3 2 2 2 1 1 0 -0 0 1 0 0 -0 0 0 0 0 0 0 -0 0 -0 -0 0 -0 0 0 -0 -0
4 4 3 3 2 2 2 1 1 1 1 -0 0 1 0 0 0 1 0 0 0 0 0 0 1 0 0 0 0 1 1 1 -0
3 3 3 2 2 2 1 1 1 1 1 0 1 1 1 1 1 1 1 1 1 0 1 1 1 0 0 0 1 2 3 2 0
3 2 2 2 2 2 2 2 2 2 1 1 1 1 2 1 0 0 1 0 0 0 0 0 0 1 0 1 1 3 4 4 0
2 2 2 1 2 2 2 2 2 1 1 1 0 0 1 1 0 0 -0 -0 -0 1 1 0 0 1 0 0 1 1 4 5 2
3 3 2 2 3 2 1 1 1 1 1 0 -0 -0 1 1 0 -0 -0 -0 0 0 0 1 1 1 1 0 -0 2 3 5 5
3 2 3 3 2 1 1 0 1 2 1 0 0 1 1 1 0 0 0 0 1 1 0 1 1 1 2 1 0 -0 4 4 5
3 2 2 1 1 2 2 1 1 1 0 1 1 1 1 0 1 0 0 0 0 2 2 1 2 2 2 1 1 1 2 2 1
2 2 2 1 2 2 2 1 1 1 1 1 1 1 1 1 1 0 1 0 1 2 2 4 3 3 2 2 2 3 7 8 4
2 2 2 2 1 1 1 1 2 1 1 1 2 2 2 2 3 1 2 2 1 5 5 7 7 8 6 3 7 8 9 9 9
2 2 2 2 1 1 1 1 2 1 1 2 2 2 1 2 4 3 3 3 3 3 4 6 7 8 7 8 9 9 9 9 8